Location: ??????????
(54.4061°N, 22.6114°E)
Time: 12:55:41
(UTC+00:00)

Cosmos 2278 Rocket - Pass Details

Date: 23 October 2019
Orbit: 840 x 847 km, 71.0° (Epoch: 14 November)

Event Time Altitude Azimuth Distance (km) Brightness Sun altitude
Rises 18:12:31 0° 246° (WSW) 3,404 6.0 -26.4°
Reaches altitude 10° 18:15:11 10° 255° (WSW) 2,472 5.3 -26.7°
Maximum altitude 18:20:20 34° 320° (NW) 1,365 3.7 -27.4°
Drops below altitude 10° 18:25:30 10° 25° (NNE) 2,483 4.6 -28.2°
Enters shadow 18:25:34 10° 25° (NNE) 2,502 4.6 -28.2°
